Location: Julian California
(33.0790°N, 116.6010°W)
Time: 13:15:26
(UTC-07:00)

Cosmos 1697 Rocket - Pass Details

Date: 26 March 2019
Orbit: 834 x 842 km, 71.0° (Epoch: 19 April)

Event Time Altitude Azimuth Distance (km) Brightness Sun altitude
Rises 05:55:44 0° 330° (NNW) 3,385 5.6 -10.5°
Reaches altitude 10° 05:58:19 10° 322° (NW) 2,446 4.8 -10.0°
Maximum altitude 06:03:27 38° 256° (WSW) 1,242 3.1 -8.9°
Drops below altitude 10° 06:08:34 10° 189° (S) 2,430 4.9 -7.9°
Sets 06:11:08 0° 181° (S) 3,359 5.7 -7.4°
